User: anonymous   Login
Location: Unspecified
(0.0000°N, 0.0000°E)
Time: 12:48:38
(UTC+00:00)
Language:

USA 81 - Orbit

View from above orbital plane
View from above orbital plane
View from above satellite
View from above satellite

Ground track
Ground track

The orbit data is extracted from the following two-line orbital elements,

1 21949U 92023A   17086.05585843 0.00000030  00000-0  11336-4 0    05
2 21949  85.0043 215.7911 0003000  26.0644 333.9355 14.31377454    08
Epoch (UTC): 27 March 2017 01:20:26
Eccentricity: 0.0003000
inclination: 85.0043°
perigee height: 785 km
apogee height: 789 km
right ascension of ascending node: 215.7911°
argument of perigee: 26.0644°
revolutions per day: 14.31377454
mean anomaly at epoch: 333.9355°
orbit number at epoch: 0

The dashed part of the orbit path shows where the satellite is in the earth's shadow,  

DLR